Regional Weather Roundup
Issued by NWS Goodland, KS

Home | Current Version | Previous Version | Text Only | Print | Product List | Glossary Off
Versions: 1 2 3 4 5 6 7 8 9 10 11 12 13 14 15 16 17 18 19 20 21 22 23 24 25 26 27 28 29 30 31 32 33 34 35 36 37 38 39 40 41 42 43 44 45 46 47 48 49 50

000
ASUS43 KGLD 300608
RWRGLD

GOODLAND FORECAST AREA HOURLY WEATHER ROUNDUP
NATIONAL WEATHER SERVICE GOODLAND KS
1200 AM MDT SAT MAY 30 2015

...OFFICIAL OBSERVATIONS...

CITY           SKY/WX    TMP DP  RH WIND       PRES   REMARKS
GOODLAND KS    CLOUDY    51  47  86 N14       30.29R
HILL CITY KS   CLOUDY    54  47  77 N17G24    30.23R
IMPERIAL NEB   CLOUDY    49  43  80 N14       30.29R
MCCOOK NEB     CLOUDY    51  46  83 N17       30.27R
AKRON CO       CLOUDY    47  45  93 N8        30.32R
BURLINGTON CO  CLOUDY    50  47  89 N10       30.31R
LIMON CO       CLOUDY    46  42  86 N12       30.35R
$$

...UNOFFICIAL OBSERVATIONS...

CITY           SKY/WX    TMP DP  RH WIND       PRES   REMARKS
COLBY KS       CLOUDY    52  52 100 N13       30.29R
GOVE KS          N/A     54  32  43 MISG        N/A
NORTON KS      CLOUDY    50  45  81 N14       30.23
SHARON SPRINGS   N/A     52  48  87 MISG        N/A
KIT CARSON CO    N/A     50  45  84 MISG        N/A
$$


USA.gov is the U.S. government's official web portal to all federal, state and local government web resources and services.